Pasco, WA
on Friday, November 16, 2012

Friday
Previous Day Next Day
Daily Summary
 ActualAverageRecord
Temperature
Mean Temperature °F 41°F  
Max Temperature 47°F 50°F 62°F (2007)
Min Temperature 37°F 33°F 11°F (2014)
Degree Days
Heating Degree Days 23 24  
Month to date heating degree days 327 339  
Since 1 July heating degree days 771 857  
Cooling Degree Days 0 0  
Month to date cooling degree days 0 0  
Year to date cooling degree days 788 710  
Moisture
Dew Point 38°F   
Average Humidity 85    
Maximum Humidity 100    
Minimum Humidity 70    
Precipitation
Precipitation 0.00 in 0.04 in 0.43 in (1953)
Month to date precipitation 0.36 0.53  
Year to date precipitation 7.82 7.06  
Snow
Snow 0.00 in in in ()
Snow Depth 0.00 in   
Wind
Wind Speed 1 mph   
Max Wind Speed 7 mph   
Max Gust Speed 9 mph   
Visibility 9 miles   
Events     

Key: T is trace of precipitation, MM is missing value
Source: NWS Daily Summary
Time(PST)TemperatureDew PointHumidity Pressure Visibility Wind DirectionWind SpeedGust SpeedPrecipitationEvents Conditions
12:53 AM 41.0°F 37.9°F 89% 30.06 in 10.0 miles Calm Calm - N/A   Overcast
1:53 AM 41.0°F 37.9°F 89% 30.05 in 10.0 miles Calm Calm - N/A   Overcast
2:53 AM 39.9°F 37.9°F 93% 30.03 in 10.0 miles Calm Calm - N/A   Overcast
3:53 AM 39.9°F 37.9°F 93% 30.02 in 10.0 miles Calm Calm - N/A   Overcast
4:53 AM 39.0°F 37.9°F 96% 30.02 in 9.0 miles NNW 3.5 mph - N/A   Overcast
5:22 AM 39.2°F 37.4°F 93% 30.01 in 9.0 miles North 3.5 mph - N/A   Scattered Clouds
5:53 AM 37.9°F 37.0°F 97% 30.01 in 7.0 miles North 3.5 mph - N/A   Clear
6:53 AM 37.9°F 37.0°F 97% 30.03 in 8.0 miles Calm Calm - N/A   Clear
7:29 AM 37.4°F 37.4°F 100% 30.03 in 8.0 miles Calm Calm - N/A   Overcast
7:53 AM 39.9°F 37.9°F 93% 30.04 in 7.0 miles Calm Calm - N/A   Overcast
8:53 AM 41.0°F 37.9°F 89% 30.04 in 10.0 miles Calm Calm - N/A   Overcast
9:53 AM 43.0°F 37.0°F 80% 30.04 in 10.0 miles Calm Calm - N/A   Overcast
10:48 AM 44.6°F 35.6°F 71% 30.03 in 10.0 miles Calm Calm - N/A   Scattered Clouds
10:53 AM 44.1°F 36.0°F 73% 30.03 in 10.0 miles Calm Calm - N/A   Mostly Cloudy
11:53 AM 44.1°F 36.0°F 73% 30.02 in 10.0 miles Calm Calm - N/A   Mostly Cloudy
12:53 PM 45.0°F 37.0°F 74% 29.99 in 10.0 miles ESE 3.5 mph - N/A   Overcast
1:53 PM 46.0°F 37.0°F 71% 29.99 in 10.0 miles NNE 4.6 mph - N/A   Overcast
2:53 PM 45.0°F 37.0°F 74% 29.99 in 10.0 miles ENE 3.5 mph - N/A   Overcast
3:53 PM 44.1°F 37.0°F 76% 29.99 in 10.0 miles East 5.8 mph - N/A   Mostly Cloudy
4:53 PM 42.1°F 37.0°F 82% 29.99 in 7.0 miles ESE 3.5 mph - N/A   Mostly Cloudy
5:53 PM 43.0°F 37.9°F 82% 29.98 in 7.0 miles ESE 4.6 mph - N/A   Mostly Cloudy
6:53 PM 44.1°F 37.9°F 79% 29.98 in 7.0 miles SE 3.5 mph - N/A   Overcast
7:53 PM 43.0°F 37.9°F 82% 29.97 in 10.0 miles Calm Calm - N/A   Overcast
8:53 PM 42.1°F 39.0°F 89% 29.97 in 8.0 miles Calm Calm - N/A   Overcast
9:53 PM 42.1°F 39.0°F 89% 29.96 in 8.0 miles Calm Calm - N/A   Overcast
10:53 PM 42.1°F 39.0°F 89% 29.96 in 9.0 miles NNW 3.5 mph - N/A   Overcast
11:53 PM 42.1°F 39.0°F 89% 29.94 in 9.0 miles Calm Calm - N/A   Overcast
Moon Phase
Nov. 16 Nov. 20 Nov. 28 Dec. 06 Dec. 13
Sunrise:06:59 AM (PST) Moon Rise:10:01 AM (PST)11/16
Sunset:04:22 PM (PST) Moon Set:07:25 PM (PST)11/16

Copyright © 2014 The Weather Underground, Inc.